Location: Bonaustraße
(48.4603°N, 11.9280°E)
Time: 22:30:14
(UTC+02:00)

AO-92 - Pass Details

Date: 04 August 2021
Orbit: 484 x 494 km, 97.4° (Epoch: 17 September)

Event Time Altitude Azimuth Distance (km) Brightness Sun altitude
Exits shadow 21:41:06 - 94° (E) 1,855 ? -8.7°
Reaches altitude 10° 21:42:02 10° 82° (E) 1,671 ? -8.8°
Maximum altitude 21:43:21 12° 60° (ENE) 1,569 ? -9.0°
Drops below altitude 10° 21:44:39 10° 39° (NE) 1,677 ? -9.1°
Sets 21:47:55 0° 6° (N) 2,566 ? -9.6°
